When you browse on this site, cookies collect data to enhance your experience and personalize the content and advertising you see.
Visit our Privacy Policy to learn more. By continuing to use the site, you agree to this use of cookies and data.
  • In Latvia
  • List of Countries
  • For 7 days
  • Water Temperature
  • Weather Map
  • Weather Widgets
  • user-avatar
    Login

    Hourly Weather Darwin

    Today, 17 August, Saturday

    Time Temperature Precipitation Wind Pressure Humidity
    00:00 +22°C° 0 mm 1 mps 761 mmHg 88%
    01:00 +21°C° 0 mm 2 mps 761 mmHg 88%
    02:00 +20°C° 0 mm 2 mps 760 mmHg 87%
    03:00 +20°C° 0 mm 2 mps 760 mmHg 87%
    04:00 +20°C° 0 mm 2 mps 760 mmHg 86%
    05:00 +20°C° 0 mm 2 mps 760 mmHg 85%
    06:00 +20°C° 0 mm 2 mps 760 mmHg 84%
    07:00 +24°C° 0 mm 2 mps 761 mmHg 73%
    08:00 +27°C° 0 mm 2 mps 761 mmHg 61%
    09:00 +30°C° 0 mm 0 mps 762 mmHg 47%
    10:00 +33°C° 0 mm 1 mps 761 mmHg 44%
    11:00 +35°C° 0 mm 2 mps 761 mmHg 41%
    12:00 +37°C° 0 mm 2 mps 760 mmHg 39%
    13:00 +36°C° 0 mm 2 mps 760 mmHg 42%
    14:00 +35°C° 0 mm 3 mps 759 mmHg 45%
    15:00 +34°C° 0 mm 3 mps 759 mmHg 48%
    16:00 +33°C° 0 mm 3 mps 759 mmHg 52%
    17:00 +30°C° 0 mm 3 mps 759 mmHg 57%
    18:00 +29°C° 0 mm 2 mps 759 mmHg 61%
    19:00 +28°C° 0 mm 2 mps 759 mmHg 68%
    20:00 +26°C° 0 mm 2 mps 760 mmHg 75%
    21:00 +25°C° 0 mm 2 mps 760 mmHg 82%
    22:00 +24°C° 0 mm 2 mps 761 mmHg 83%
    23:00 +24°C° 0 mm 2 mps 761 mmHg 85%

    Tomorrow, 18 August, Sunday

    Time Temperature Precipitation Wind Pressure Humidity
    00:00 +24°C° 0 mm 2 mps 761 mmHg 86%
    01:00 +23°C° 0 mm 2 mps 760 mmHg 87%
    02:00 +23°C° 0 mm 2 mps 760 mmHg 88%
    03:00 +21°C° 0 mm 2 mps 760 mmHg 90%
    04:00 +21°C° 0 mm 2 mps 760 mmHg 89%
    05:00 +21°C° 0 mm 2 mps 760 mmHg 88%
    06:00 +21°C° 0 mm 2 mps 761 mmHg 88%
    07:00 +25°C° 0 mm 2 mps 761 mmHg 77%
    08:00 +28°C° 0 mm 2 mps 761 mmHg 66%
    09:00 +31°C° 0 mm 2 mps 762 mmHg 56%
    10:00 +32°C° 0 mm 2 mps 761 mmHg 50%
    11:00 +35°C° 0 mm 2 mps 761 mmHg 45%
    12:00 +37°C° 0 mm 2 mps 760 mmHg 39%
    13:00 +36°C° 0 mm 3 mps 759 mmHg 44%
    14:00 +34°C° 0 mm 3 mps 758 mmHg 48%
    15:00 +33°C° 0 mm 4 mps 758 mmHg 53%
    16:00 +31°C° 0 mm 3 mps 758 mmHg 57%
    17:00 +30°C° 0 mm 3 mps 758 mmHg 62%
    18:00 +29°C° 0 mm 3 mps 758 mmHg 66%
    19:00 +28°C° 0 mm 3 mps 758 mmHg 69%
    20:00 +26°C° 0 mm 3 mps 759 mmHg 72%
    21:00 +25°C° 0 mm 3 mps 759 mmHg 76%
    22:00 +25°C° 0 mm 2 mps 760 mmHg 76%
    23:00 +25°C° 0 mm 2 mps 760 mmHg 76%

    Day after tomorrow, 19 August, Monday

    Time Temperature Precipitation Wind Pressure Humidity
    00:00 +24°C° 0 mm 1 mps 760 mmHg 76%
    01:00 +24°C° 0 mm 2 mps 760 mmHg 77%
    02:00 +24°C° 0 mm 3 mps 759 mmHg 79%
    03:00 +24°C° 0 mm 3 mps 759 mmHg 80%
    04:00 +24°C° 0 mm 3 mps 759 mmHg 84%
    05:00 +24°C° 0 mm 3 mps 760 mmHg 87%
    06:00 +23°C° 0 mm 2 mps 760 mmHg 90%
    07:00 +26°C° 0 mm 2 mps 760 mmHg 80%
    08:00 +28°C° 0 mm 3 mps 761 mmHg 69%
    09:00 +31°C° 0 mm 3 mps 761 mmHg 59%
    10:00 +34°C° 0 mm 3 mps 761 mmHg 50%
    11:00 +35°C° 0 mm 4 mps 760 mmHg 42%
    12:00 +37°C° 0 mm 4 mps 760 mmHg 34%
    13:00 +37°C° 0 mm 4 mps 759 mmHg 34%
    14:00 +37°C° 0 mm 4 mps 758 mmHg 34%
    15:00 +37°C° 0 mm 4 mps 758 mmHg 35%
    16:00 +35°C° 0 mm 3 mps 758 mmHg 43%
    17:00 +33°C° 0 mm 3 mps 758 mmHg 51%
    18:00 +29°C° 0 mm 2 mps 758 mmHg 60%
    19:00 +29°C° 0 mm 2 mps 759 mmHg 62%
    20:00 +28°C° 0 mm 2 mps 760 mmHg 63%
    21:00 +28°C° 0 mm 2 mps 761 mmHg 65%
    22:00 +27°C° 0 mm 2 mps 761 mmHg 69%
    23:00 +26°C° 0 mm 3 mps 761 mmHg 73%

    20 August, Tuesday

    Time Temperature Precipitation Wind Pressure Humidity
    00:00 +25°C° 0 mm 3 mps 761 mmHg 76%
    01:00 +23°C° 0 mm 4 mps 761 mmHg 66%
    02:00 +22°C° 0 mm 5 mps 761 mmHg 55%
    03:00 +22°C° 0 mm 7 mps 761 mmHg 45%
    04:00 +21°C° 0 mm 7 mps 761 mmHg 40%
    05:00 +21°C° 0 mm 8 mps 761 mmHg 36%
    06:00 +21°C° 0 mm 8 mps 762 mmHg 31%
    07:00 +23°C° 0 mm 8 mps 762 mmHg 26%
    08:00 +24°C° 0 mm 9 mps 762 mmHg 22%
    09:00 +27°C° 0 mm 9 mps 763 mmHg 18%
    10:00 +29°C° 0 mm 8 mps 762 mmHg 17%
    11:00 +32°C° 0 mm 7 mps 762 mmHg 17%
    12:00 +34°C° 0 mm 6 mps 761 mmHg 17%
    13:00 +35°C° 0 mm 5 mps 760 mmHg 17%
    14:00 +36°C° 0 mm 5 mps 760 mmHg 17%
    15:00 +37°C° 0 mm 4 mps 759 mmHg 17%
    16:00 +35°C° 0 mm 4 mps 759 mmHg 19%
    17:00 +34°C° 0 mm 3 mps 759 mmHg 22%
    18:00 +31°C° 0 mm 2 mps 759 mmHg 24%
    19:00 +30°C° 0 mm 3 mps 760 mmHg 25%
    20:00 +28°C° 0 mm 3 mps 761 mmHg 27%
    21:00 +26°C° 0 mm 3 mps 761 mmHg 28%
    22:00 +26°C° 0 mm 5 mps 761 mmHg 28%
    23:00 +24°C° 0 mm 6 mps 762 mmHg 29%

    21 August, Wednesday

    Time Temperature Precipitation Wind Pressure Humidity
    00:00 +23°C° 0 mm 7 mps 762 mmHg 29%
    01:00 +22°C° 0 mm 7 mps 761 mmHg 32%
    02:00 +21°C° 0 mm 7 mps 761 mmHg 35%
    03:00 +20°C° 0 mm 7 mps 761 mmHg 38%
    04:00 +18°C° 0 mm 7 mps 761 mmHg 41%
    05:00 +17°C° 0 mm 7 mps 761 mmHg 45%
    06:00 +17°C° 0 mm 7 mps 761 mmHg 48%
    07:00 +20°C° 0 mm 7 mps 762 mmHg 40%
    08:00 +22°C° 0 mm 7 mps 762 mmHg 32%
    09:00 +24°C° 0 mm 7 mps 762 mmHg 24%
    10:00 +27°C° 0 mm 6 mps 762 mmHg 22%
    11:00 +29°C° 0 mm 6 mps 761 mmHg 20%
    12:00 +32°C° 0 mm 5 mps 761 mmHg 17%
    13:00 +33°C° 0 mm 4 mps 760 mmHg 17%
    14:00 +34°C° 0 mm 4 mps 759 mmHg 17%
    15:00 +35°C° 0 mm 3 mps 758 mmHg 17%
    16:00 +33°C° 0 mm 3 mps 758 mmHg 22%
    17:00 +30°C° 0 mm 2 mps 759 mmHg 27%
    18:00 +28°C° 0 mm 2 mps 759 mmHg 32%
    19:00 +26°C° 0 mm 2 mps 759 mmHg 38%
    20:00 +24°C° 0 mm 2 mps 760 mmHg 44%
    21:00 +21°C° 0 mm 3 mps 761 mmHg 50%
    22:00 +20°C° 0 mm 3 mps 761 mmHg 45%
    23:00 +19°C° 0 mm 3 mps 761 mmHg 39%

    22 August, Thursday

    Time Temperature Precipitation Wind Pressure Humidity
    00:00 +18°C° 0 mm 3 mps 761 mmHg 33%
    01:00 +18°C° 0 mm 4 mps 760 mmHg 35%
    02:00 +17°C° 0 mm 4 mps 760 mmHg 37%
    03:00 +16°C° 0 mm 5 mps 760 mmHg 39%
    04:00 +15°C° 0 mm 5 mps 760 mmHg 47%
    05:00 +15°C° 0 mm 5 mps 761 mmHg 56%
    06:00 +15°C° 0 mm 5 mps 761 mmHg 64%
    07:00 +17°C° 0 mm 5 mps 761 mmHg 61%
    08:00 +21°C° 0 mm 5 mps 762 mmHg 58%
    09:00 +25°C° 0 mm 5 mps 762 mmHg 55%
    10:00 +28°C° 0 mm 5 mps 761 mmHg 46%
    11:00 +30°C° 0 mm 5 mps 761 mmHg 38%
    12:00 +34°C° 0 mm 4 mps 760 mmHg 30%
    13:00 +35°C° 0 mm 4 mps 759 mmHg 29%
    14:00 +35°C° 0 mm 5 mps 759 mmHg 28%
    15:00 +36°C° 0 mm 5 mps 758 mmHg 27%
    16:00 +33°C° 0 mm 5 mps 758 mmHg 35%
    17:00 +30°C° 0 mm 4 mps 758 mmHg 43%
    18:00 +28°C° 0 mm 3 mps 758 mmHg 50%
    19:00 +26°C° 0 mm 3 mps 759 mmHg 57%
    20:00 +24°C° 0 mm 3 mps 760 mmHg 64%
    21:00 +23°C° 0 mm 2 mps 760 mmHg 71%
    22:00 +21°C° 0 mm 2 mps 761 mmHg 74%
    23:00 +21°C° 0 mm 1 mps 761 mmHg 77%
    Show more